User: anonymous   Login
Location: Hickory_Viewmont
(35.7830°N, 81.3170°W)
Time: 19:44:12
(UTC-04:00)
Language:

Okean-O - Orbit

View from above orbital plane
View from above orbital plane
View from above satellite
View from above satellite

Ground track
Ground track

The orbit data is extracted from the following two-line orbital elements,

1 25860U 99039A   14303.94621295  .00001167  00000-0  17901-3 0  4047
2 25860 098.0620 267.1534 0001308 082.9154 313.7676 14.75510487822172
Epoch (UTC): 30 October 2014 22:42:32
Eccentricity: 0.0001308
inclination: 98.0620°
perigee height: 642 km
apogee height: 644 km
right ascension of ascending node: 267.1534°
argument of perigee: 82.9154°
revolutions per day: 14.75510487
mean anomaly at epoch: 313.7676°
orbit number at epoch: 82217

The dashed part of the orbit path shows where the satellite is in the earth's shadow,  

DLR